Regional Weather Roundup
Issued by NWS Little Rock, AR

Home | Current Version | Previous Version | Graphics & Text | Print | Product List | Glossary On
Versions: 1 2 3 4 5 6 7 8 9 10 11 12 13 14 15 16 17 18 19 20 21 22 23 24 25 26 27 28 29 30 31 32 33 34 35 36 37 38 39 40 41 42 43 44 45 46 47 48 49 50
000
ASUS44 KLZK 221812
RWRLZK

WEATHER ROUNDUP FOR ARKANSAS
NATIONAL WEATHER SERVICE LITTLE ROCK AR
1200 PM CST WED NOV 22 2017

NOTE: "FAIR" INDICATES FEW OR NO CLOUDS BELOW 12,000 FEET WITH NO
SIGNIFICANT WEATHER AND/OR OBSTRUCTIONS TO VISIBILITY.

ARZ001-003-010-029-221900-
NORTHWEST ARKANSAS

CITY           SKY/WX    TMP DP  RH WIND       PRES   REMARKS
FAYETTEVILLE   SUNNY     43  23  45 NW9       30.36F
6HR MIN TEMP:  26; 6HR MAX TEMP:  43;

FORT SMITH     SUNNY     47  23  38 VRB6      30.38F
6HR MIN TEMP:  29; 6HR MAX TEMP:  48;

HARRISON       SUNNY     41  20  43 N3        30.36F
6HR MIN TEMP:  25; 6HR MAX TEMP:  41;

BENTONVILLE    SUNNY     40  20  44 E5        30.38F
6HR MIN TEMP:  25; 6HR MAX TEMP:  41;

ROGERS         SUNNY     40  20  44 NE6       30.37F
6HR MIN TEMP:  23; 6HR MAX TEMP:  40;

SILOAM SPGS    SUNNY     42  21  43 NW3       30.37F
6HR MIN TEMP:  23; 6HR MAX TEMP:  42;

HIGHFILL       SUNNY     42  21  43 N7        30.37F
6HR MIN TEMP:  24; 6HR MAX TEMP:  42;

SPRINGDALE     SUNNY     43  21  42 N6        30.38F
$$

ARZ004-005-016-221900-
NORTH CENTRAL ARKANSAS

CITY           SKY/WX    TMP DP  RH WIND       PRES   REMARKS
BATESVILLE     SUNNY     44  20  38 NE7       30.36F
6HR MIN TEMP:  30; 6HR MAX TEMP:  44;

FLIPPIN        SUNNY     41  19  41 NW6       30.37F
6HR MIN TEMP:  29; 6HR MAX TEMP:  41;

MTN HOME       SUNNY     41  18  39 VRB5      30.34F
6HR MIN TEMP:  24; 6HR MAX TEMP:  41;

$$

ARZ040-041-221900-
WEST CENTRAL ARKANSAS

CITY           SKY/WX    TMP DP  RH WIND       PRES   REMARKS
MENA           SUNNY     50  25  37 N3        30.32F
MOUNT IDA      SUNNY     51  24  34 CALM      30.30F
6HR MIN TEMP:  31; 6HR MAX TEMP:  51;

$$

ARZ009-017-025-026-028-221900-
NORTHEAST ARKANSAS

CITY           SKY/WX    TMP DP  RH WIND       PRES   REMARKS
CORNING        FAIR      41  23  48 VRB6G16   30.35F
JONESBORO      SUNNY     42  24  49 E14       30.34F
6HR MIN TEMP:  32; 6HR MAX TEMP:  42; 6HR PCP: TRACE;

NEWPORT        SUNNY     42  23  46 N9        30.37F
6HR MIN TEMP:  30; 6HR MAX TEMP:  42;

BLYTHEVILLE    SUNNY     43  26  51 NE13      30.33F
6HR MIN TEMP:  30; 6HR MAX TEMP:  44;

$$

ARZ022-023-033-042-044-221900-
CENTRAL ARKANSAS

CITY           SKY/WX    TMP DP  RH WIND       PRES   REMARKS
LITTLE ROCK    SUNNY     46  21  37 NE9       30.35F
6HR MIN TEMP:  37; 6HR MAX TEMP:  47;

N LITTLE ROCK    N/A     46  23  41 N6        30.36F
6HR MIN TEMP:  36; 6HR MAX TEMP:  47;

JACKSONVILLE   SUNNY     47  22  37 E8        30.34F
6HR MIN TEMP:  37; 6HR MAX TEMP:  47;

SEARCY         SUNNY     45  22  40 N7        30.36F
6HR MIN TEMP:  34; 6HR MAX TEMP:  45;

HOT SPRINGS    SUNNY     50  20  30 E7        30.33F
6HR MIN TEMP:  40; 6HR MAX TEMP:  50;

RUSSELLVILLE   SUNNY     47  21  35 NW6       30.35F
6HR MIN TEMP:  34; 6HR MAX TEMP:  47;

CLINTON        FAIR      46  18  31 CALM      30.35F
$$

ARZ036-221900-
EAST ARKANSAS

CITY           SKY/WX    TMP DP  RH WIND       PRES   REMARKS
WEST MEMPHIS   SUNNY     43  26  51 NE10      30.32F
6HR MIN TEMP:  32; 6HR MAX TEMP:  43;

$$

ARZ050-053-066-070-073-221900-
SOUTHWEST ARKANSAS

CITY           SKY/WX    TMP DP  RH WIND       PRES   REMARKS
ARKADELPHIA    FAIR      50  24  36 NE8       30.34F
6HR MIN TEMP:  42; 6HR MAX TEMP:  50;

CAMDEN         SUNNY     55  23  28 NE9       30.32F
TEXARKANA      SUNNY     53  26  35 NE9       30.31F
6HR MIN TEMP:  40; 6HR MAX TEMP:  53;

EL DORADO      SUNNY     52  29  41 N8        30.30F
6HR MIN TEMP:  42; 6HR MAX TEMP:  53;

DE QUEEN       SUNNY     56  30  37 E6        30.30F
6HR MIN TEMP:  36; 6HR MAX TEMP:  56;

$$

ARZ056-057-069-221900-
SOUTHEAST ARKANSAS

CITY           SKY/WX    TMP DP  RH WIND       PRES   REMARKS
PINE BLUFF     SUNNY     46  24  42 N12G21    30.34F
6HR MIN TEMP:  39; 6HR MAX TEMP:  46;

STUTTGART      SUNNY     45  24  43 NE15      30.34F
6HR MIN TEMP:  37; 6HR MAX TEMP:  45;

MONTICELLO     SUNNY     48  24  39 N9        30.31F
6HR MIN TEMP:  43; 6HR MAX TEMP:  49;


$$





USA.gov is the U.S. government's official web portal to all federal, state and local government web resources and services.